Weather History for Garissa, Kenya

Change the Weather History Date:

Wednesday, December 25, 2013

  Actual Average Record
Temperature  
Mean Temperature 86 °F -  
Max Temperature 98 °F 98 °F - ()
Min Temperature 74 °F 73 °F - ()
Cooling Degree Days 21    
Growing Degree Days 36 (Base 50)    
Moisture  
Dew Point 63 °F    
Average Humidity 46    
Maximum Humidity 78    
Minimum Humidity 16    
Precipitation  
Precipitation 0.00 in - - ()
Sea Level Pressure  
Sea Level Pressure 29.87 in    
Wind  
Wind Speed 5 mph ()    
Max Wind Speed 18 mph    
Max Gust Speed -    
Visibility 10.5 miles    
Events      
T = Trace of Precipitation, MM = Missing Value Source: Averaged Metar Reports

Daily Weather History Graph

Daily Weather History Graph

Search for Another Location

Airport:

Trip Planner

Search our weather history database for the weather conditions in past years. The results will help you decide how hot, cold, wet, or windy it might be!

Date:

Astronomy

Dec. 25, 2013 Rise Set
Actual Time 6:17 AM EAT 6:26 PM EAT
Civil Twilight 5:54 AM EAT 6:48 PM EAT
Nautical Twilight 5:28 AM EAT 7:14 PM EAT
Astronomical Twilight 5:01 AM EAT 7:41 PM EAT
Moon No Moon Rise 12:05 PM EAT (12/25)
Length of Visible Light 12h 54m
Length of Day
12h 09m
Waning Gibbous, 52% of the Moon is Illuminated
Dec 25
Waning Gibbous
Dec 25
Last Quarter
Jan 1
New
Jan 8
First Quarter
Jan 16
Full

Hourly Weather History & Observations

Time (EAT) Temp. Heat Index Dew Point Humidity Pressure Visibility Wind Dir Wind Speed Gust Speed Precip Events Conditions
12:00 AM 81 °F - 68 °F 56% 29.86 in 19 mi ESE 6.9 mph - -  
1:00 AM 78.8 °F - 66.2 °F 65% 29.86 in - ESE 4.6 mph - N/A   Clear
3:00 AM 77 °F - 67 °F 64% 29.89 in 19 mi Calm Calm - -  
4:00 AM 77.0 °F - 66.2 °F 69% 29.89 in - Calm Calm - N/A   Clear
5:00 AM 77.0 °F - 66.2 °F 69% 29.92 in - Calm Calm - N/A   Clear
6:00 AM 76 °F - 68 °F 71% 29.93 in 19 mi Calm Calm - -  
7:00 AM 77.0 °F - 69.8 °F 78% 29.95 in - Calm Calm - N/A   Clear
8:00 AM 78.8 °F - 69.8 °F 74% 29.98 in 6.2 mi NE 6.9 mph - N/A   Mostly Cloudy
9:00 AM 82 °F - 69 °F 57% 29.93 in 25 mi NE 6.9 mph - -   Partly Cloudy
10:00 AM 86.0 °F 88.2 °F 66.2 °F 51% 29.95 in 6.2 mi NE 9.2 mph - N/A   Scattered Clouds
11:00 AM 89.6 °F 92.2 °F 66.2 °F 46% 29.92 in 6.2 mi NNE 9.2 mph - N/A   Partly Cloudy
12:00 PM 91 °F - 64 °F 30% 29.88 in 25 mi NNE 11.5 mph - -   Scattered Clouds
1:00 PM 95.0 °F 96.0 °F 62.6 °F 34% 29.86 in 6.2 mi NE 13.8 mph - N/A   Scattered Clouds
2:00 PM 95.0 °F 93.7 °F 57.2 °F 28% 29.83 in 6.2 mi North 17.3 mph - N/A   Scattered Clouds
3:00 PM 98 °F - 56 °F 16% 29.78 in 25 mi NE 18.4 mph - -   Partly Cloudy
4:00 PM 96.8 °F 95.1 °F 55.4 °F 25% 29.80 in 6.2 mi NE 9.2 mph - N/A   Scattered Clouds
5:00 PM 96.8 °F 95.1 °F 55.4 °F 25% 29.80 in 6.2 mi NNE 9.2 mph - N/A   Scattered Clouds
6:00 PM 95 °F - 57 °F 19% 29.78 in 25 mi ENE 5.8 mph - -   Scattered Clouds
7:00 PM 93.2 °F 92.6 °F 59.0 °F 32% 29.80 in 6.2 mi Calm Calm - N/A   Partly Cloudy
8:00 PM 87.8 °F 87.6 °F 60.8 °F 40% 29.83 in - Calm Calm - N/A   Clear
9:00 PM 87 °F - 61 °F 31% 29.82 in 19 mi Calm Calm - -  
10:00 PM 86.0 °F 85.4 °F 59.0 °F 40% 29.86 in - ESE 17.3 mph - N/A   Clear